map of MAH home
MAH - Airport
Location
City:  Mahón, Menorca, Balearic Islands, Spain
Near (Alt.):Maó
Name:Menorca Airport
ICAO:LEMH
IATA:MAH

Details
Type:Airport (Aerodrome, Airfield)
Use:Public/Civil
Latitude:39°51'45"N (39.862597)
Longitude:4°13'07"E (4.218647)
Datum:WGS 1984
Elevation:298 ft (91 m)
Variation:1.62°E (WMM2015v2 magnetic declination)
0.14° annual change
Runways:2
Longest:7710 × 148 ft (2350 × 45 m), paved

Time
Time Zone:UTC+1 (DST+2)
Local Time:

Weather
METAR:LEMH 041400Z 35017KT 320V020 9999 FEW030 10/03 Q1024
TAF:LEMH 040800Z 0409/0509 35020KT 9999 FEW030 TX12/0412Z TN07/0507Z
TEMPO 0409/0414 35022G32KT
BECMG 0415/0417 34008KT

Related Locations
Nearby:
Farthest:CHT: 12155 mi / 19562 km
Waitangi [Tuuta], CIT, NZ

Find:

   beyond  
but within

Other Information
Maps:
NOTAMs:
Links:
Sources:

  
  • flag of Spain
  • flag of Balearic Islands
  

Airport Diagram

Airport diagram for MAH

Larger airport diagram (OBSOLETE) from NGA

Sectional Chart

Flight Planning
at skyvector.com

Satellite Image

Google Maps Satellite view

 

Copyright © 2004-2019 Karl L. Swartz. All rights reserved.
The Great Circle Mapper name and logo are trademarks of the Great Circle Mapper.
All other trademarks mentioned herein belong to their respective owners.
Please see credits for attibutions and further copyright information.

  Follow gcmap on Facebook Follow gcmap on Twitter GCmap on LinkedIn

hCard Microformat

Geo Microformat